1534575600.81,27218,20.13,74566.8,9.41,5.07,4.63,0,*7C
1534575601.98,27219,20.06,74560.8,9.37,4.81,4.37,0,*72
1534575603.15,27220,20.06,74566.0,9.37,5.07,4.53,0,*75
1534575604.4,27221,20.06,74566.0,9.39,5.55,4.93,0,*71
1534575605.57,27222,20.06,74564.8,9.37,5.67,4.81,0,*7E
1534575606.79,27223,20.06,74560.5,9.39,5.63,4.63,0,*79
1534575608.02,27224,20.06,74564.3,9.39,5.67,4.59,0,*73
1534575609.26,27225,20.13,74568.8,9.39,5.73,4.59,0,*77
1534575610.47,27226,20.06,74566.8,9.39,5.51,4.23,0,*79
1534575611.68,27227,20.06,74566.3,9.39,5.29,3.53,0,*77
1534575612.88,27228,20.06,74564.5,9.39,4.81,2.61,0,*7B
1534575614.13,27229,20.06,74570.5,9.41,4.63,1.93,0,*77
1534575615.35,27230,20.06,74570.3,9.41,3.55,0.71,0,*40
1534575616.55,27231,20.06,74572.5,9.41,2.31,0.01,0,*75
1534575617.78,27232,20.06,74572.0,9.43,2.05,0.47,0,*41
1534575618.98,27233,20.06,74574.5,9.43,1.75,0.63,0,*42
1534575620.23,27234,20.06,74568.8,9.41,1.71,1.21,0,*74
1534575621.46,27235,20.06,74574.5,9.43,0.79,1.09,0,*44
1534575622.7,27236,20.06,74570.5,9.43,1.21,2.09,0,*78
1534575623.93,27237,20.06,74572.8,9.43,1.71,3.07,0,*73
1534575625.16,27238,20.06,74574.3,9.43,1.97,3.53,0,*75
1534575626.41,27239,20.06,74574.8,9.45,2.21,4.01,0,*7C
1534575627.62,27240,20.06,74568.8,9.45,2.65,4.57,0,*71
1534575628.85,27241,20.06,74568.8,9.47,3.19,4.93,0,*70
1534575630.08,27242,20.06,74568.5,9.49,4.05,5.45,0,*7D
1534575631.3,27243,20.06,74570.5,9.53,4.45,5.55,0,*72
1534575632.5,27244,20.06,74568.5,9.55,4.79,5.71,0,*7A
1534575633.7,27245,20.06,74570.3,9.55,5.15,5.81,0,*7F
1534575634.88,27246,20.13,74572.0,9.55,5.11,5.59,0,*7D
1534575636.07,27247,20.06,74570.8,9.55,5.41,5.51,0,*71
1534575637.28,27248,20.06,74570.5,9.57,5.59,5.59,0,*7D
1534575638.48,27249,20.06,74570.3,9.57,5.49,5.15,0,*75
1534575639.71,27250,20.06,74570.8,9.61,5.01,4.53,0,*77
1534575640.91,27251,20.06,74570.8,9.59,5.45,4.75,0,*79
1534575642.11,27252,20.06,74568.8,9.61,5.37,4.57,0,*74
1534575643.28,27253,20.13,74574.3,9.63,5.29,4.53,0,*7C
1534575644.51,27254,20.13,74574.3,9.65,5.37,4.71,0,*72
1534575645.71,27255,20.06,74570.5,9.67,5.45,4.75,0,*70
1534575646.93,27256,20.06,74574.0,9.69,5.37,4.59,0,*76
1534575648.1,27257,20.06,74570.5,9.71,5.07,4.27,0,*74
1534575649.3,27258,20.06,74574.5,9.69,5.19,4.27,0,*7D
1534575650.47,27259,20.06,74568.5,9.71,5.07,4.19,0,*77
1534575651.67,27260,20.13,74574.0,9.73,4.89,4.19,0,*78
1534575652.89,27261,20.06,74570.5,9.73,4.67,4.27,0,*74
1534575654.09,27262,20.06,74574.5,9.77,4.89,4.57,0,*74
1534575655.29,27263,20.13,74572.0,9.77,4.89,4.81,0,*7E
1534575656.49,27264,20.06,74574.8,9.79,4.81,4.97,0,*78
1534575657.71,27265,20.06,74574.3,9.79,4.71,5.07,0,*7E
1534575658.92,27266,20.13,74574.3,9.83,4.97,5.67,0,*76
1534575660.1,27267,20.06,74574.0,9.83,5.11,5.99,0,*79
1534575661.33,27268,20.06,74570.5,9.83,5.01,5.81,0,*7E
1534575662.56,27269,20.06,74570.3,9.83,4.97,5.77,0,*78
1534575663.81,27270,20.06,74572.8,9.85,5.01,5.89,0,*79
1534575665.02,27271,20.06,74570.3,9.85,5.55,6.29,0,*70
1534575666.22,27272,20.06,74572.0,9.87,5.55,6.33,0,*7A
1534575667.41,27273,20.06,74572.0,9.85,5.45,6.11,0,*78
1534575668.62,27274,20.06,74570.0,9.89,5.59,6.21,0,*7D
1534575669.81,27275,20.06,74568.5,9.87,5.49,6.13,0,*72
1534575670.98,27276,20.13,74574.5,9.87,5.59,6.07,0,*75
1534575672.21,27277,20.06,74570.3,9.89,5.51,5.99,0,*76
1534575673.41,27278,20.06,74570.5,9.85,5.23,5.59,0,*7C
1534575674.65,27279,20.06,74572.5,9.85,4.79,5.23,0,*7E
1534575675.88,27280,20.13,74572.0,9.83,4.59,4.97,0,*72
1534575677.11,27281,20.06,74570.8,9.81,4.49,4.93,0,*74
1534575678.35,27282,20.06,74570.0,9.79,4.59,4.93,0,*71
1534575679.6,27283,20.06,74570.5,9.77,4.71,5.05,0,*7A
1534575680.82,27284,20.06,74570.8,9.77,4.67,4.89,0,*7F
1534575682.05,27285,20.06,74566.3,9.73,4.67,4.85,0,*76
1534575683.23,27286,20.13,74566.8,9.71,5.11,5.33,0,*7B
1534575684.42,27287,20.06,74560.3,9.71,5.45,5.55,0,*7B
1534575685.65,27288,20.13,74564.0,9.73,5.41,5.55,0,*72
1534575686.82,27289,20.06,74560.5,9.71,5.71,5.71,0,*74
1534575687.99,27290,20.06,74562.3,9.71,6.11,6.29,0,*77
1534575689.2,27291,20.13,74564.8,9.71,6.13,6.25,0,*78
1534575690.37,27292,20.06,74564.8,9.71,6.11,6.29,0,*75
1534575691.63,27293,20.06,74564.5,9.73,6.13,6.35,0,*79
1534575692.85,27294,20.06,74566.0,9.71,5.81,5.89,0,*70
1534575694.06,27295,20.13,74566.5,9.71,6.25,6.47,0,*7D
1534575695.29,27296,20.06,74566.5,9.71,6.13,6.35,0,*7E
1534575696.51,27297,20.13,74566.0,9.73,6.17,6.29,0,*74
1534575697.71,27298,20.06,74564.3,9.71,5.99,6.13,0,*75
1534575698.91,27299,20.06,74566.0,9.71,5.89,6.11,0,*77
1534575700.14,27300,20.06,74566.0,9.73,5.99,6.17,0,*73
1534575701.39,27301,20.06,74564.0,9.77,6.17,6.39,0,*7F
1534575702.62,27302,20.13,74568.8,9.77,6.03,6.17,0,*75
1534575703.87,27303,20.06,74564.5,9.77,5.93,6.13,0,*7A
1534575705.09,27304,20.06,74564.8,9.77,5.95,6.13,0,*7B
1534575706.32,27305,20.13,74570.5,9.79,6.43,6.57,0,*7C
1534575707.57,27306,20.06,74566.8,9.77,6.51,6.61,0,*77
1534575708.82,27307,20.13,74570.3,9.77,6.51,6.61,0,*76
1534575710.0,27308,20.06,74566.5,9.79,6.21,6.33,0,*77
1534575711.2,27309,20.06,74570.0,9.79,6.07,6.17,0,*74
1534575712.38,27310,20.06,74570.8,9.79,6.07,6.21,0,*79
1534575713.59,27311,20.13,74570.3,9.79,6.17,6.33,0,*7A
1534575714.76,27312,20.13,74570.8,9.79,6.07,6.21,0,*7B
1534575716.0,27313,20.13,74568.3,9.81,6.25,6.35,0,*78
1534575717.23,27314,20.13,74568.8,9.81,6.33,6.47,0,*7D
1534575718.47,27315,20.13,74570.0,9.81,6.21,6.47,0,*7F
1534575719.68,27316,20.06,74568.8,9.83,6.21,6.51,0,*79
1534575720.89,27317,20.06,74570.0,9.83,6.35,6.83,0,*72
1534575722.1,27318,20.13,74570.5,9.83,6.51,7.05,0,*70
1534575723.31,27319,20.13,74568.5,9.87,6.51,6.97,0,*7F
1534575724.51,27320,20.06,74566.8,9.87,6.17,6.75,0,*7B
1534575725.69,27321,20.06,74566.5,9.87,6.29,6.93,0,*7F
1534575726.92,27322,20.06,74566.3,9.85,5.99,6.51,0,*78
1534575728.14,27323,20.06,74570.0,9.87,6.17,6.73,0,*7E
1534575729.35,27324,20.13,74570.8,9.87,6.51,6.97,0,*71
1534575730.58,27325,20.06,74572.8,9.87,6.53,7.11,0,*7D
1534575731.78,27326,20.06,74572.0,9.87,6.65,7.09,0,*72
1534575732.99,27327,20.13,74572.0,9.87,6.61,6.97,0,*71
1534575734.2,27328,20.13,74576.8,9.91,6.97,7.27,0,*7A
1534575735.42,27329,20.06,74572.0,9.89,6.79,7.11,0,*77
1534575736.68,27330,20.13,74574.3,9.93,6.51,6.61,0,*78
1534575737.88,27331,20.06,74572.5,9.91,6.57,6.79,0,*74
1534575739.11,27332,20.06,74570.0,9.91,6.65,6.87,0,*77
1534575740.29,27333,20.13,74570.8,9.91,6.79,6.97,0,*7A
1534575741.48,27334,20.06,74568.0,9.93,6.93,7.05,0,*71
1534575742.73,27335,20.06,74566.3,9.93,7.15,7.27,0,*7F
1534575743.96,27336,20.13,74570.8,9.95,7.11,7.19,0,*73
1534575745.15,27337,20.06,74568.0,9.95,7.29,7.29,0,*7A
1534575746.33,27338,20.13,74572.3,9.95,7.09,7.05,0,*79
1534575747.55,27339,20.13,74572.5,9.93,6.91,6.83,0,*71
1534575748.73,27340,20.06,74568.0,9.99,6.97,6.75,0,*7A
1534575749.93,27341,20.06,74572.0,9.99,6.75,6.53,0,*73
1534575751.16,27342,20.06,74572.5,9.95,6.43,6.13,0,*7D
1534575752.37,27343,20.06,74568.8,9.95,6.25,5.81,0,*74
1534575753.6,27344,20.13,74570.3,9.99,6.61,6.13,0,*77
1534575754.81,27345,20.13,74572.3,9.99,6.51,6.03,0,*74
1534575756.05,27346,20.06,74572.5,9.99,6.51,5.93,0,*7D
1534575757.28,27347,20.06,74572.8,9.99,6.51,5.81,0,*7F
1534575758.49,27348,20.06,74574.5,9.95,6.39,5.49,0,*76
1534575759.68,27349,20.06,74574.5,9.99,6.29,5.15,0,*73
1534575760.89,27350,20.06,74572.0,9.99,5.95,4.63,0,*7F
1534575762.09,27351,20.13,74574.8,9.99,5.59,4.05,0,*7E
1534575763.26,27352,20.13,74576.3,9.99,5.49,3.93,0,*74
1534575764.5,27353,20.13,74578.0,9.99,4.71,3.11,0,*75
1534575765.73,27354,20.13,74578.0,10.01,4.23,2.73,0,*49
1534575766.95,27355,20.13,74576.8,10.01,3.85,2.55,0,*47
1534575768.19,27356,20.13,74578.5,10.03,3.11,2.13,0,*49
1534575769.44,27357,20.13,74578.8,10.01,2.55,2.01,0,*48
1534575770.69,27358,20.06,74574.5,10.01,0.91,1.25,0,*78
1534575771.93,27359,20.13,74578.3,10.01,0.41,1.47,0,*70
1534575773.14,27360,20.13,74574.8,10.01,0.29,2.31,0,*76
1534575774.37,27361,20.06,74572.3,10.01,0.79,3.25,0,*76
1534575775.57,27362,20.13,74572.3,10.03,1.17,4.11,0,*4E
1534575776.81,27363,20.13,74572.3,10.03,1.89,4.97,0,*46
1534575778.03,27364,20.06,74570.0,10.03,2.73,5.81,0,*41
1534575779.24,27365,20.13,74568.3,10.05,3.93,6.61,0,*44
1534575780.45,27366,20.13,74570.3,10.07,4.57,7.09,0,*45
1534575781.68,27367,20.13,74572.3,10.09,5.05,7.19,0,*4D
1534575782.89,27368,20.06,74566.3,10.11,5.59,7.37,0,*4E
1534575784.1,27369,20.06,74566.0,10.13,6.21,7.69,0,*4A
1534575785.33,27370,20.13,74566.0,10.17,6.61,7.83,0,*46
1534575786.54,27371,20.13,74568.0,10.17,7.15,8.19,0,*49
1534575787.77,27372,20.06,74566.3,10.23,7.45,8.37,0,*44
1534575788.98,27373,20.13,74570.0,10.23,7.37,8.27,0,*41
1534575790.24,27374,20.06,74566.0,10.27,7.61,8.41,0,*41
1534575791.42,27375,20.13,74570.0,10.29,7.33,8.27,0,*49
1534575792.68,27376,20.13,74570.0,10.31,6.87,7.87,0,*48
1534575793.89,27377,20.13,74568.3,10.31,6.97,7.97,0,*49
1534575795.13,27378,20.06,74570.0,10.35,7.05,8.13,0,*4B
1534575796.34,27379,20.13,74570.3,10.37,6.97,8.09,0,*49
1534575797.6,27380,20.13,74570.5,10.37,6.87,7.95,0,*44
1534575798.83,27381,20.06,74568.5,10.45,6.79,7.91,0,*45
1534575800.06,27382,20.13,74570.0,10.45,6.87,8.15,0,*44
1534575801.27,27383,20.13,74570.5,10.47,7.45,8.71,0,*4A
1534575802.51,27384,20.06,74568.3,10.49,7.59,8.93,0,*42
1534575803.76,27385,20.13,74570.0,10.53,7.65,9.01,0,*4D
1534575805.01,27386,20.13,74570.8,10.53,7.61,8.97,0,*44
1534575806.25,27387,20.13,74570.3,10.55,7.69,8.93,0,*4F
1534575807.45,27388,20.13,74570.0,10.57,7.45,8.69,0,*49
1534575808.67,27389,20.13,74570.0,10.61,7.73,8.79,0,*49
1534575809.93,27390,20.13,74570.0,10.61,7.87,8.89,0,*45
1534575811.13,27391,20.13,74570.0,10.63,8.09,9.01,0,*4E
1534575812.33,27392,20.13,74572.5,10.67,8.05,8.89,0,*44
1534575813.58,27393,20.13,74568.3,10.71,8.29,8.97,0,*43
1534575814.83,27394,20.13,74568.8,10.71,8.29,8.93,0,*40
1534575816.09,27395,20.06,74566.5,10.71,7.83,8.41,0,*41
1534575817.34,27396,20.13,74566.5,10.75,7.87,8.33,0,*47
1534575818.56,27397,20.13,74566.8,10.75,8.29,8.79,0,*43
1534575819.76,27398,20.13,74566.3,10.75,8.23,8.65,0,*4B
1534575820.99,27399,20.13,74564.0,10.75,8.33,8.61,0,*4F
1534575822.22,27400,20.06,74564.0,10.79,8.29,8.69,0,*47
1534575823.45,27401,20.06,74562.3,10.79,8.27,8.47,0,*44
1534575824.68,27402,20.13,74566.5,10.79,8.19,8.47,0,*4A
1534575825.87,27403,20.06,74566.3,10.81,8.09,8.29,0,*45
1534575827.05,27404,20.13,74568.0,10.81,7.97,8.19,0,*49
1534575828.27,27405,20.06,74562.8,10.83,7.77,7.97,0,*4D
1534575829.47,27406,20.13,74566.5,10.81,7.83,8.05,0,*43
1534575830.67,27407,20.13,74566.3,10.83,8.01,8.23,0,*41
1534575831.86,27408,20.13,74564.8,10.83,7.97,8.19,0,*47
1534575833.11,27409,20.13,74566.5,10.83,8.29,8.51,0,*40
1534575834.36,27410,20.13,74566.3,10.83,8.13,8.41,0,*40
1534575835.56,27411,20.13,74564.0,10.85,8.09,8.33,0,*49
1534575836.76,27412,20.13,74566.0,10.85,8.33,8.61,0,*44
1534575837.97,27413,20.13,74566.3,10.85,8.19,8.41,0,*4F
1534575839.17,27414,20.13,74564.5,10.89,8.27,8.47,0,*4F
1534575840.38,27415,20.13,74564.3,10.89,8.15,8.33,0,*4C
1534575841.63,27416,20.13,74568.0,10.91,7.73,7.95,0,*4A
1534575842.8,27417,20.06,74562.5,10.89,8.05,8.23,0,*4E
1534575844.04,27418,20.06,74562.3,10.91,8.27,8.59,0,*45
1534575845.24,27419,20.13,74564.5,10.93,8.37,8.61,0,*4C
1534575846.46,27420,20.13,74566.8,10.93,8.29,8.41,0,*4B
1534575847.67,27421,20.13,74564.3,10.93,8.19,8.37,0,*48
1534575848.85,27422,20.13,74564.3,10.93,8.09,8.27,0,*4B
1534575850.08,27423,20.06,74560.3,10.95,8.09,8.33,0,*49
1534575851.33,27424,20.13,74568.5,10.95,7.77,7.83,0,*4C
1534575852.58,27425,20.13,74568.3,10.95,7.65,7.65,0,*46
1534575853.78,27426,20.13,74564.0,10.93,7.11,7.01,0,*42
1534575854.95,27427,20.13,74570.0,10.93,6.93,6.93,0,*42
1534575856.2,27428,20.13,74568.0,10.91,7.23,7.23,0,*4F
1534575857.43,27429,20.13,74566.0,10.91,7.23,7.33,0,*4F
1534575858.65,27430,20.13,74564.8,10.91,6.91,6.93,0,*44
1534575859.83,27431,20.13,74566.8,10.89,7.09,6.97,0,*48
1534575861.0,27432,20.13,74564.0,10.85,7.41,7.41,0,*41
1534575862.18,27433,20.13,74566.5,10.89,7.59,7.59,0,*4C
1534575863.36,27434,20.13,74566.3,10.89,7.55,7.59,0,*47
1534575864.53,27435,20.13,74566.5,10.89,7.33,7.37,0,*4E
1534575865.7,27436,20.13,74566.8,10.89,7.37,7.45,0,*4C
1534575866.87,27437,20.06,74562.3,10.85,7.41,7.45,0,*40
1534575868.08,27438,20.13,74564.0,10.89,7.47,7.55,0,*44
1534575869.25,27439,20.13,74566.3,10.85,7.45,7.51,0,*4F
1534575870.46,27440,20.13,74566.0,10.85,7.55,7.61,0,*43
1534575871.64,27441,20.13,74564.8,10.89,7.55,7.59,0,*45
1534575872.82,27442,20.13,74568.3,10.85,7.45,7.51,0,*43
1534575873.99,27443,20.13,74572.5,10.85,7.51,7.55,0,*43
1534575875.2,27444,20.13,74570.0,10.85,7.09,7.15,0,*4D
1534575876.42,27445,20.13,74566.0,10.89,6.65,6.69,0,*41
1534575877.64,27446,20.13,74568.3,10.85,6.61,6.65,0,*46
1534575878.86,27447,20.13,74568.0,10.85,6.57,6.57,0,*43
1534575880.08,27448,20.13,74568.8,10.81,6.47,6.57,0,*49
1534575881.33,27449,20.13,74568.8,10.83,6.87,6.87,0,*4B
1534575882.54,27450,20.13,74570.0,10.81,7.23,7.37,0,*44
1534575883.76,27451,20.13,74572.0,10.83,7.09,7.15,0,*4F
1534575884.96,27452,20.13,74572.8,10.83,7.33,7.45,0,*40
1534575886.18,27453,20.13,74570.5,10.81,7.15,7.23,0,*47
1534575887.43,27454,20.13,74568.5,10.83,7.19,7.27,0,*4A
1534575888.63,27455,20.13,74568.0,10.81,7.15,7.29,0,*4B
1534575889.83,27456,20.13,74568.5,10.81,6.73,6.79,0,*4D
1534575891.05,27457,20.13,74570.0,10.81,6.57,6.73,0,*40
1534575892.27,27458,20.13,74568.0,10.81,6.61,6.69,0,*41
1534575893.47,27459,20.13,74570.0,10.77,6.69,6.75,0,*4C
1534575894.67,27460,20.13,74572.8,10.79,7.37,7.37,0,*45
1534575895.89,27461,20.13,74570.3,10.77,7.11,7.11,0,*4A
1534575897.11,27462,20.13,74568.0,10.77,7.19,7.23,0,*40
1534575898.34,27463,20.13,74568.5,10.79,7.27,7.29,0,*48
1534575899.55,27464,20.13,74572.5,10.79,7.29,7.37,0,*4E
1534575900.77,27465,20.13,74570.5,10.77,7.11,7.23,0,*4F
1534575901.98,27466,20.13,74568.5,10.79,7.29,7.29,0,*43
1534575903.23,27467,20.13,74570.5,10.79,7.15,7.23,0,*47
1534575904.44,27468,20.13,74570.0,10.81,6.93,6.91,0,*48
1534575905.6,27469,20.13,74572.0,10.81,7.01,7.01,0,*4B
1534575906.81,27470,20.13,74570.3,10.79,7.29,7.37,0,*4B
1534575907.98,27471,20.13,74572.5,10.77,7.37,7.41,0,*4A
1534575909.18,27472,20.06,74570.3,10.79,7.41,7.37,0,*47
1534575910.37,27473,20.13,74572.0,10.77,7.27,7.33,0,*4C
1534575911.58,27474,20.13,74570.5,10.79,7.29,7.41,0,*4E
1534575912.74,27475,20.13,74570.0,10.77,7.01,7.09,0,*47
1534575913.94,27476,20.13,74572.3,10.77,7.23,7.33,0,*4D
1534575915.15,27477,20.13,74570.8,10.79,7.29,7.37,0,*4C
1534575916.41,27478,20.13,74574.8,10.79,7.61,7.61,0,*4C
1534575917.63,27479,20.13,74572.8,10.79,7.41,7.47,0,*4B
1534575918.85,27480,20.13,74570.8,10.81,7.15,7.15,0,*4C
1534575920.05,27481,20.13,74572.5,10.81,6.91,6.93,0,*4F
1534575921.31,27482,20.13,74574.3,10.79,6.47,6.47,0,*49
1534575922.51,27483,20.13,74574.3,10.79,6.83,6.83,0,*48
1534575923.76,27484,20.13,74574.3,10.79,7.11,7.15,0,*4B
1534575924.99,27485,20.13,74574.8,10.77,6.91,6.91,0,*40
1534575926.18,27486,20.13,74572.5,10.79,7.01,7.01,0,*4D
1534575927.41,27487,20.13,74572.0,10.79,6.83,6.91,0,*4F
1534575928.63,27488,20.13,74576.5,10.77,6.57,6.65,0,*4C
1534575929.85,27489,20.13,74572.3,10.77,6.57,6.69,0,*41
1534575931.05,27490,20.13,74572.0,10.77,6.91,6.97,0,*42
1534575932.25,27491,20.13,74578.5,10.75,6.83,6.75,0,*4E
1534575933.45,27492,20.13,74574.5,10.75,6.83,6.83,0,*44
1534575934.71,27493,20.13,74576.8,10.75,6.35,6.35,0,*45
1534575935.96,27494,20.13,74576.5,10.75,6.17,6.13,0,*46
1534575937.18,27495,20.13,74578.3,10.73,6.53,6.53,0,*45
1534575938.35,27496,20.13,74574.3,10.73,6.93,6.93,0,*46
1534575939.58,27497,20.13,74574.5,10.73,6.65,6.61,0,*43
1534575940.83,27498,20.13,74574.3,10.71,6.47,6.57,0,*4B
1534575942.07,27499,20.13,74574.8,10.69,6.51,6.43,0,*41
1534575943.33,27500,20.13,74574.8,10.71,6.47,6.47,0,*4A
1534575944.56,27501,20.13,74576.0,10.71,6.79,6.73,0,*41
1534575945.79,27502,20.13,74578.3,10.69,6.61,6.47,0,*45
1534575947.03,27503,20.13,74574.0,10.69,6.51,6.51,0,*40
1534575948.26,27504,20.13,74578.8,10.69,6.73,6.69,0,*4C
1534575949.45,27505,20.13,74574.8,10.69,6.79,6.73,0,*4C
1534575950.66,27506,20.13,74572.8,10.69,6.87,6.79,0,*44
1534575951.88,27507,20.13,74578.3,10.71,6.83,6.73,0,*42
1534575953.09,27508,20.13,74572.8,10.69,6.03,5.93,0,*41
1534575954.3,27509,20.13,74574.0,10.63,5.95,5.85,0,*41
1534575955.47,27510,20.13,74578.3,10.67,5.71,5.63,0,*4F
1534575956.67,27511,20.13,74576.8,10.63,5.55,5.49,0,*44
1534575957.88,27512,20.13,74574.0,10.59,5.41,5.51,0,*42
1534575959.11,27513,20.13,74572.8,10.59,5.89,5.89,0,*42
1534575960.31,27514,20.13,74572.0,10.61,5.71,5.71,0,*4E
1534575961.49,27515,20.13,74572.3,10.59,5.67,5.71,0,*43
1534575962.67,27516,20.13,74572.8,10.55,5.41,5.49,0,*43
1534575963.86,27517,20.13,74570.3,10.55,5.67,5.63,0,*4E
1534575965.08,27518,20.13,74568.3,10.55,5.55,5.55,0,*45
1534575966.33,27519,20.13,74566.0,10.53,5.85,5.93,0,*45
1534575967.54,27520,20.13,74570.0,10.53,6.29,6.29,0,*48
1534575968.8,27521,20.13,74564.0,10.53,6.61,6.65,0,*4D
1534575969.97,27522,20.13,74568.5,10.55,6.75,6.79,0,*40
1534575971.18,27523,20.13,74572.3,10.55,6.75,6.91,0,*47
1534575972.41,27524,20.13,74570.3,10.53,7.09,7.19,0,*4D
1534575973.64,27525,20.13,74568.8,10.53,7.09,7.23,0,*45
1534575974.86,27526,20.13,74572.3,10.57,7.27,7.33,0,*4F
1534575976.12,27527,20.13,74574.0,10.57,7.23,7.27,0,*4F
1534575977.35,27528,20.13,74574.0,10.59,7.19,7.27,0,*47
1534575978.56,27529,20.13,74576.0,10.59,7.37,7.61,0,*48
1534575979.8,27530,20.13,74574.3,10.59,7.47,7.69,0,*4F
1534575981.02,27531,20.13,74576.3,10.61,6.53,6.83,0,*44
1534575982.2,27532,20.13,74570.5,10.63,6.75,6.97,0,*44
1534575983.39,27533,20.13,74576.5,10.61,6.75,7.05,0,*4D
1534575984.62,27534,20.13,74570.8,10.61,6.93,7.23,0,*46
1534575985.83,27535,20.13,74576.3,10.63,7.45,7.77,0,*4E
1534575987.03,27536,20.13,74572.0,10.67,7.37,7.69,0,*43
1534575988.23,27537,20.13,74574.8,10.67,7.47,7.79,0,*44
1534575989.47,27538,20.13,74572.5,10.69,7.61,7.95,0,*43
1534575990.69,27539,20.13,74570.8,10.69,7.11,7.27,0,*4C
1534575991.9,27540,20.13,74574.3,10.69,6.73,6.93,0,*49
1534575993.07,27541,20.13,74572.3,10.69,6.79,7.01,0,*48
1534575994.28,27542,20.13,74568.8,10.69,7.15,7.29,0,*4A
1534575995.52,27543,20.13,74572.3,10.71,7.51,7.69,0,*46
1534575996.74,27544,20.13,74570.8,10.71,7.37,7.47,0,*4D
1534575997.98,27545,20.13,74572.8,10.71,7.41,7.61,0,*49
1534575999.22,27546,20.13,74570.0,10.71,7.27,7.29,0,*46
1534576000.45,27547,20.13,74572.3,10.71,7.19,7.29,0,*4A
1534576001.65,27548,20.13,74568.3,10.71,6.83,7.01,0,*4D
1534576002.82,27549,20.13,74572.5,10.73,6.75,6.83,0,*4C
1534576004.05,27550,20.13,74568.3,10.71,6.73,6.83,0,*40
1534576005.28,27551,20.13,74574.5,10.71,6.83,6.91,0,*4D
1534576006.51,27552,20.13,74570.5,10.71,7.05,7.11,0,*48
1534576007.69,27553,20.13,74570.8,10.69,6.93,6.93,0,*45
1534576008.95,27554,20.13,74574.5,10.71,7.11,7.15,0,*4F
1534576010.14,27555,20.13,74570.5,10.71,7.01,7.01,0,*4A
1534576011.35,27556,20.13,74572.5,10.71,6.83,6.93,0,*48
1534576012.57,27557,20.13,74570.0,10.69,6.57,6.57,0,*41
1534576013.78,27558,20.13,74568.5,10.69,6.33,6.35,0,*48
1534576015.02,27559,20.13,74570.0,10.69,6.43,6.47,0,*4B
1534576016.22,27560,20.13,74570.0,10.67,6.39,6.33,0,*41
1534576017.43,27561,20.13,74570.8,10.63,6.39,6.25,0,*43
1534576018.61,27562,20.13,74568.8,10.67,6.29,6.29,0,*49
1534576019.79,27563,20.13,74570.3,10.63,6.29,6.29,0,*4C
1534576021.03,27564,20.13,74572.0,10.63,6.43,6.39,0,*46
1534576022.26,27565,20.13,74570.8,10.63,6.51,6.61,0,*49
1534576023.5,27566,20.13,74574.3,10.63,6.39,6.35,0,*45
1534576024.74,27567,20.13,74572.0,10.63,6.35,6.35,0,*48
1534576025.99,27568,20.13,74574.0,10.61,6.43,6.39,0,*48
1534576027.23,27569,20.13,74574.8,10.61,6.53,6.53,0,*44
1534576028.48,27570,20.13,74570.8,10.61,6.65,6.57,0,*4D
1534576029.72,27571,20.13,74570.5,10.59,6.57,6.47,0,*47
1534576030.97,27572,20.13,74570.0,10.61,6.53,6.51,0,*4C
1534576032.22,27573,20.13,74570.5,10.61,6.53,6.51,0,*4D
1534576033.45,27574,20.13,74574.0,10.59,6.57,6.47,0,*42
1534576034.71,27575,20.13,74572.5,10.57,6.65,6.53,0,*49
1534576035.92,27576,20.13,74572.0,10.57,6.33,6.33,0,*4F
1534576037.1,27577,20.13,74574.0,10.59,6.07,5.95,0,*48
1534576038.31,27578,20.13,74572.8,10.55,5.95,5.89,0,*4E
1534576039.51,27579,20.13,74572.3,10.55,5.95,5.73,0,*4A
1534576040.74,27580,20.13,74572.0,10.55,5.85,5.73,0,*4D
1534576041.92,27581,20.13,74574.8,10.55,5.67,5.41,0,*41
1534576043.1,27582,20.13,74574.5,10.51,5.49,5.33,0,*4F
1534576044.28,27583,20.13,74570.8,10.51,5.49,5.41,0,*4B
1534576045.48,27584,20.13,74570.5,10.49,5.49,5.41,0,*45
1534576046.69,27585,20.13,74570.3,10.47,5.41,5.27,0,*42
1534576047.87,27586,20.13,74574.5,10.47,5.37,5.15,0,*41
1534576049.12,27587,20.13,74574.0,10.45,5.27,4.97,0,*48
1534576050.36,27588,20.13,74568.5,10.41,5.11,4.93,0,*42
1534576051.59,27589,20.13,74570.5,10.41,5.23,5.05,0,*4C
1534576052.79,27590,20.13,74568.3,10.41,5.63,5.41,0,*40
1534576054.02,27591,20.13,74574.5,10.37,5.55,5.37,0,*44
1534576055.23,27592,20.13,74572.0,10.37,5.45,5.23,0,*43
1534576056.44,27593,20.13,74570.8,10.37,5.23,5.11,0,*43
1534576057.66,27594,20.13,74572.5,10.35,5.19,5.07,0,*48
1534576058.88,27595,20.13,74572.3,10.35,5.29,5.27,0,*48
1534576060.13,27596,20.13,74568.8,10.35,5.51,5.55,0,*41
1534576061.34,27597,20.13,74568.5,10.37,5.23,5.49,0,*4A
1534576062.54,27598,20.13,74574.0,10.37,5.07,5.45,0,*4F
1534576063.78,27599,20.13,74572.3,10.37,5.01,5.49,0,*44
1534576065.0,27600,20.13,74570.5,10.35,4.85,5.51,0,*41
1534576066.24,27601,20.13,74570.5,10.35,4.93,5.67,0,*42
1534576067.47,27602,20.13,74570.3,10.35,5.33,6.13,0,*4A
1534576068.66,27603,20.13,74574.5,10.35,5.29,6.25,0,*45
1534576069.88,27604,20.13,74568.5,10.35,5.45,6.43,0,*48
1534576071.11,27605,20.13,74570.5,10.35,5.45,6.47,0,*4D
1534576072.32,27606,20.13,74570.0,10.35,5.45,6.53,0,*4B
1534576073.5,27607,20.13,74572.3,10.39,5.71,6.83,0,*4C
1534576074.73,27608,20.13,74570.0,10.37,5.49,6.51,0,*49
1534576075.96,27609,20.13,74574.8,10.39,5.55,6.51,0,*4B
1534576077.16,27610,20.13,74574.0,10.39,5.45,6.35,0,*40
1534576078.38,27611,20.13,74576.5,10.41,5.71,6.61,0,*48
1534576079.6,27612,20.13,74574.0,10.41,6.03,6.97,0,*44
1534576080.86,27613,20.13,74568.0,10.45,6.35,7.11,0,*4B
1534576082.09,27614,20.13,74568.0,10.45,5.95,6.65,0,*47
1534576083.28,27615,20.13,74568.0,10.47,6.25,6.93,0,*45
1534576084.51,27616,20.13,74572.3,10.47,6.53,7.15,0,*48
1534576085.74,27617,20.13,74574.0,10.49,6.39,6.93,0,*44
1534576087.0,27618,20.13,74574.8,10.49,6.61,7.15,0,*49
1534576088.23,27619,20.13,74570.3,10.51,6.61,7.15,0,*41
1534576089.46,27620,20.13,74570.3,10.53,6.53,6.97,0,*43
1534576090.69,27621,20.13,74574.3,10.51,6.57,6.91,0,*42
1534576091.9,27622,20.13,74570.5,10.51,6.73,7.05,0,*4B
1534576093.13,27623,20.13,74572.8,10.55,6.91,7.15,0,*43
1534576094.38,27624,20.13,74572.8,10.57,7.11,7.27,0,*4E
1534576095.56,27625,20.13,74572.8,10.55,6.75,7.01,0,*4A
1534576096.81,27626,20.13,74572.8,10.57,6.65,6.87,0,*45
1534576098.05,27627,20.13,74574.8,10.59,6.73,6.91,0,*4A
1534576099.26,27628,20.13,74572.3,10.59,7.05,7.19,0,*44
1534576100.43,27629,20.13,74578.5,10.59,7.05,7.01,0,*4C
1534576101.66,27630,20.13,74576.8,10.61,6.97,6.87,0,*4A
1534576102.88,27631,20.13,74576.3,10.61,6.75,6.53,0,*4E
1534576104.09,27632,20.13,74574.8,10.63,6.65,6.25,0,*4F
1534576105.29,27633,20.13,74574.3,10.67,6.87,6.29,0,*4A
1534576106.47,27634,20.13,74574.3,10.69,6.79,5.99,0,*4A
1534576107.7,27635,20.13,74574.8,10.67,6.87,5.77,0,*44
1534576108.93,27636,20.13,74574.8,10.71,7.05,5.55,0,*4B
1534576110.16,27637,20.13,74572.3,10.69,6.69,4.93,0,*43
1534576111.37,27638,20.13,74574.8,10.69,6.69,4.37,0,*42
1534576112.61,27639,20.13,74576.5,10.71,6.33,3.49,0,*4B
1534576113.82,27640,20.13,74572.5,10.71,6.25,2.95,0,*42
1534576115.09,27641,20.13,74576.0,10.71,5.93,2.17,0,*47
1534576116.31,27642,20.13,74574.3,10.71,5.71,1.51,0,*49
1534576117.56,27643,20.13,74574.0,10.71,5.51,1.21,0,*4D
1534576118.79,27644,20.13,74574.8,10.73,4.79,0.21,0,*72
1534576120.0,27645,20.13,74574.8,10.71,4.19,-0.41,0,*5C
1534576121.2,27646,20.13,74578.5,10.73,3.59,-1.01,0,*6B
1534576122.38,27647,20.13,74578.5,10.73,2.99,-1.59,0,*6A
1534576123.6,27648,20.13,74576.8,10.71,2.27,-2.15,0,*69